LA9UTA-13 Weather Reports


time (UTC)temp
C
wind
direction
speed
KPH
gust
KPH
rain 1hr
cm
rain 24hr
cm
rain mn
cm
humidity
%
barometer
mb
20260506221802 3 143 0.0 0.0 0.00 0.00 0.00 45 1014.0
20260506215801 3 190 1.6 3.2 0.00 0.00 0.00 46 1014.0
20260506215054 3 152 1.6 1.6 0.00 0.00 0.00 46 1014.0
20260506213802 3 152 1.6 1.6 0.00 0.00 0.00 46 1014.0
20260506211801 3 163 1.6 1.6 0.00 0.00 0.00 52 1013.0
20260506205801 3 168 0.0 0.0 0.00 0.00 0.00 53 1013.0
20260506205044 3 179 0.0 0.0 0.00 0.00 0.00 52 1014.0
20260506203802 3 179 0.0 0.0 0.00 0.00 0.00 52 1014.0
20260506201802 4 180 0.0 1.6 0.00 0.00 0.00 50 1012.9
20260506195801 5 185 1.6 3.2 0.00 0.00 0.00 46 1012.8
20260506195030 6 187 3.2 3.2 0.00 0.00 0.00 41 1012.7
20260506193802 6 187 3.2 3.2 0.00 0.00 0.00 41 1012.7
20260506191802 6 261 4.8 4.8 0.00 0.00 0.00 44 1012.7
20260506191220 8 170 0.0 0.0 0.00 0.00 0.00 36 1012.5
20260506185801 8 170 0.0 0.0 0.00 0.00 0.00 36 1012.5
20260506185022 9 198 1.6 1.6 0.00 0.00 0.00 32 1012.4
20260506183801 9 198 1.6 1.6 0.00 0.00 0.00 32 1012.4
20260506181801 9 335 3.2 4.8 0.00 0.00 0.00 31 1011.4
20260506175801 10 191 4.8 4.8 0.00 0.00 0.00 30 1011.3
20260506173802 11 182 3.2 4.8 0.00 0.00 0.00 26 1011.2
20260506171801 10 247 6.4 6.4 0.00 0.00 0.00 27 1011.3
20260506165802 11 161 1.6 1.6 0.00 0.00 0.00 27 1011.2
20260506163802 12 154 0.0 0.0 0.00 0.00 0.00 27 1011.1
20260506161801 10 174 1.6 1.6 0.00 0.00 0.00 30 1011.3
20260506155802 10 173 1.6 1.6 0.00 0.00 0.00 28 1011.3
20260506153801 10 312 4.8 4.8 0.00 0.00 0.00 27 1011.3
20260506151801 10 227 4.8 4.8 0.00 0.00 0.00 29 1011.3
20260506145802 11 249 9.7 14.5 0.00 0.00 0.00 26 1011.2
20260506143802 10 136 8.0 14.5 0.00 0.00 0.00 25 1011.4
20260506141801 12 205 1.6 3.2 0.00 0.00 0.00 22 1011.1
20260506135801 11 254 8.0 12.9 0.00 0.00 0.00 23 1011.2
20260506133801 11 199 3.2 4.8 0.00 0.00 0.00 24 1012.2
20260506131801 12 160 1.6 3.2 0.00 0.00 0.00 26 1011.1
20260506125801 11 278 3.2 4.8 0.00 0.00 0.00 27 1012.2
20260506123801 11 158 6.4 6.4 0.00 0.00 0.00 28 1012.2
20260506121802 11 124 6.4 9.7 0.00 0.00 0.00 29 1012.2
20260506115801 11 179 3.2 4.8 0.00 0.00 0.00 29 1012.2
20260506113801 10 227 6.4 12.9 0.00 0.00 0.00 31 1012.3
20260506111801 10 152 0.0 1.6 0.00 0.00 0.00 31 1012.3
20260506105801 8 136 4.8 6.4 0.00 0.00 0.00 34 1012.4
20260506103802 10 114 3.2 4.8 0.00 0.00 0.00 30 1012.3
20260506101802 11 184 1.6 3.2 0.00 0.00 0.00 31 1012.2
20260506095801 10 148 0.0 0.0 0.00 0.00 0.00 32 1012.3
20260506093802 11 140 4.8 6.4 0.00 0.00 0.00 31 1012.2
20260506091801 9 135 4.8 4.8 0.00 0.00 0.00 32 1012.4
20260506085801 7 13 4.8 6.4 0.00 0.00 0.00 33 1012.6
20260506083801 7 314 6.4 6.4 0.00 0.00 0.00 35 1012.6
20260506081801 7 158 3.2 4.8 0.00 0.00 0.00 33 1013.5
20260506071801 7 161 3.2 4.8 0.00 0.00 0.00 35 1012.6
20260506061801 5 139 1.6 3.2 0.00 0.00 0.00 45 1013.8
20260506043802 0 163 0.0 0.0 0.00 0.00 0.00 63 1013.3
20260506041801 0 104 4.8 6.4 0.00 0.00 0.00 61 1013.3
20260506035801 -1 156 3.2 3.2 0.00 0.00 0.00 69 1013.4
20260506033801 -2 171 1.6 1.6 0.00 0.00 0.00 70 1013.5
20260506031801 0 141 0.0 1.6 0.00 0.00 0.00 64 1013.3
20260506025801 0 111 1.6 1.6 0.00 0.00 0.00 63 1013.3
20260506023803 0 123 1.6 3.2 0.00 0.00 0.00 62 1013.3
20260506021802 0 347 3.2 3.2 0.00 0.00 0.00 61 1013.3
20260506015801 -1 146 0.0 0.0 0.00 0.00 0.00 68 1013.4
20260506013928 -1 132 0.0 1.6 0.00 0.00 0.00 68 1013.4
20260506013801 -1 140 0.0 0.0 0.00 0.00 0.00 65 1013.4
20260506005801 -1 132 0.0 1.6 0.00 0.00 0.00 68 1013.4
20260506003801 -1 164 0.0 0.0 0.00 0.00 0.00 68 1013.4
20260506001801 -1 159 0.0 0.0 0.00 0.00 0.00 68 1013.4
20260505235801 -1 149 0.0 0.0 0.00 0.00 0.00 66 1013.4
20260505233801 0 162 1.6 1.6 0.00 0.00 0.00 65 1013.3
20260505231801 -1 185 1.6 1.6 0.00 0.00 0.00 71 1013.4
20260505230901 -1 182 1.6 1.6 0.00 0.00 0.00 68 1013.4
20260505225801 -1 182 1.6 1.6 0.00 0.00 0.00 68 1013.4
20260505223801 0 336 3.2 4.8 0.00 0.00 0.00 65 1013.3